| time (UTC) | temp F | wind direction | speed MPH | gust MPH | rain 1hr in | rain 24hr in | rain mn in | humidity % | barometer mb |
| 20260904203007 | 72 | 354 | 0.0 | 5.0 | 0.00 | 0.28 | 0.01 | 89 | 1012.2 |
| 20260904201507 | 73 | 348 | 0.0 | 4.0 | 0.00 | 0.28 | 0.01 | 89 | 1012.3 |
| 20260904200020 | 73 | 1 | 1.0 | 4.0 | 0.00 | 0.28 | 0.01 | 90 | 1012.2 |
| 20260904194507 | 72 | 1 | 0.0 | 5.0 | 0.00 | 0.30 | 0.01 | 90 | 1012.2 |
| 20260904193008 | 72 | 359 | 1.0 | 4.0 | 0.00 | 0.30 | 0.01 | 90 | 1012.3 |
| 20260904191514 | 73 | 3 | 1.0 | 4.0 | 0.00 | 0.30 | 0.01 | 90 | 1012.6 |
| 20260904190009 | 74 | 25 | 0.0 | 4.0 | 0.00 | 0.30 | 0.01 | 89 | 1012.7 |
| 20260904184509 | 73 | 352 | 0.0 | 4.0 | 0.00 | 0.30 | 0.01 | 91 | 1012.4 |
| 20260904183008 | 73 | 6 | 0.0 | 4.0 | 0.00 | 0.30 | 0.01 | 91 | 1012.6 |
| 20260904181509 | 74 | 160 | 0.0 | 4.0 | 0.00 | 0.30 | 0.01 | 89 | 1012.9 |
| 20260904180008 | 73 | 159 | 0.0 | 2.0 | 0.00 | 0.30 | 0.01 | 89 | 1013.1 |
| 20260904174511 | 73 | 159 | 0.0 | 2.0 | 0.00 | 0.30 | 0.01 | 91 | 1013.1 |
| 20260904173012 | 73 | 159 | 0.0 | 3.0 | 0.00 | 0.30 | 0.01 | 91 | 1013.4 |
| 20260904171507 | 72 | 160 | 1.0 | 3.0 | 0.00 | 0.30 | 0.01 | 93 | 1013.4 |
| 20260904170008 | 71 | 160 | 0.0 | 1.0 | 0.00 | 0.30 | 0.01 | 94 | 1013.7 |
| 20260904164509 | 70 | 160 | 0.0 | 3.0 | 0.00 | 0.30 | 0.01 | 95 | 1014.1 |
| 20260904163008 | 70 | 160 | 0.0 | 3.0 | 0.00 | 0.30 | 0.01 | 95 | 1014.2 |
| 20260904161510 | 69 | 160 | 0.0 | 2.0 | 0.00 | 0.30 | 0.01 | 96 | 1014.7 |
| 20260904160008 | 69 | 160 | 0.0 | 3.0 | 0.00 | 0.30 | 0.01 | 96 | 1015.0 |
| 20260904154509 | 69 | 160 | 0.0 | 2.0 | 0.00 | 0.30 | 0.01 | 97 | 1015.1 |
| 20260904153010 | 69 | 160 | 0.0 | 2.0 | 0.00 | 0.30 | 0.01 | 97 | 1015.3 |
| 20260904151508 | 69 | 160 | 0.0 | 2.0 | 0.00 | 0.30 | 0.01 | 97 | 1015.0 |
| 20260904150009 | 68 | 160 | 0.0 | 0.0 | 0.00 | 0.30 | 0.01 | 97 | 1015.0 |
| 20260904144509 | 68 | 160 | 0.0 | 2.0 | 0.01 | 0.30 | 0.01 | 98 | 1015.0 |
| 20260904143009 | 67 | 160 | 0.0 | 4.0 | 0.01 | 0.30 | 0.01 | 97 | 1014.7 |
| 20260904141509 | 67 | 294 | 1.0 | 3.0 | 0.01 | 0.30 | 0.01 | 97 | 1014.8 |
| 20260904140009 | 67 | 294 | 0.0 | 1.0 | 0.01 | 0.30 | 0.01 | 97 | 1014.9 |
| 20260904134508 | 66 | 294 | 0.0 | 0.0 | 0.00 | 0.28 | 0.00 | 98 | 1014.8 |
| 20260904133009 | 66 | 294 | 0.0 | 3.0 | 0.00 | 0.28 | 0.00 | 98 | 1014.4 |
| 20260904131509 | 66 | 294 | 0.0 | 0.0 | 0.00 | 0.28 | 0.00 | 97 | 1014.1 |
| 20260904130012 | 65 | 294 | 0.0 | 0.0 | 0.00 | 0.28 | 0.00 | 97 | 1014.1 |
| 20260904124509 | 65 | 294 | 0.0 | 0.0 | 0.00 | 0.28 | 0.00 | 97 | 1014.1 |
| 20260904123009 | 65 | 294 | 0.0 | 0.0 | 0.00 | 0.28 | 0.00 | 97 | 1014.4 |
| 20260904121508 | 65 | 294 | 0.0 | 0.0 | 0.00 | 0.28 | 0.00 | 98 | 1014.4 |
| 20260904120011 | 65 | 294 | 0.0 | 0.0 | 0.00 | 0.28 | 0.00 | 98 | 1014.2 |
| 20260904114509 | 65 | 294 | 0.0 | 0.0 | 0.00 | 0.28 | 0.00 | 97 | 1013.8 |
| 20260904113010 | 65 | 294 | 0.0 | 0.0 | 0.00 | 0.28 | 0.00 | 97 | 1013.9 |
| 20260904111509 | 64 | 294 | 0.0 | 0.0 | 0.00 | 0.28 | 0.00 | 97 | 1013.8 |
| 20260904110010 | 64 | 294 | 0.0 | 0.0 | 0.00 | 0.28 | 0.00 | 97 | 1013.6 |
| 20260904104510 | 64 | 294 | 0.0 | 0.0 | 0.00 | 0.28 | 0.00 | 97 | 1013.4 |
| 20260904103010 | 64 | 294 | 0.0 | 0.0 | 0.00 | 0.28 | 0.00 | 97 | 1013.2 |
| 20260904101512 | 65 | 294 | 0.0 | 2.0 | 0.00 | 0.28 | 0.00 | 97 | 1013.0 |
| 20260904100010 | 64 | 294 | 0.0 | 0.0 | 0.00 | 0.28 | 0.00 | 97 | 1013.0 |
| 20260904094513 | 64 | 294 | 0.0 | 0.0 | 0.00 | 0.28 | 0.00 | 97 | 1013.3 |
| 20260904093027 | 64 | 294 | 0.0 | 0.0 | 0.00 | 0.28 | 0.00 | 97 | 1013.4 |
| 20260904091510 | 64 | 294 | 0.0 | 0.0 | 0.00 | 0.28 | 0.00 | 97 | 1013.5 |
| 20260904090010 | 64 | 294 | 0.0 | 0.0 | 0.00 | 0.28 | 0.00 | 97 | 1013.3 |
| 20260904084510 | 65 | 294 | 0.0 | 0.0 | 0.00 | 0.28 | 0.00 | 97 | 1013.4 |
| 20260904083010 | 64 | 294 | 0.0 | 0.0 | 0.00 | 0.28 | 0.00 | 97 | 1013.6 |
| 20260904081511 | 64 | 294 | 0.0 | 0.0 | 0.00 | 0.28 | 0.00 | 97 | 1013.3 |
| 20260904080010 | 65 | 294 | 0.0 | 0.0 | 0.00 | 0.28 | 0.00 | 97 | 1012.9 |
| 20260904074512 | 65 | 294 | 0.0 | 0.0 | 0.00 | 0.28 | 0.00 | 97 | 1013.1 |
| 20260904073032 | 65 | 294 | 0.0 | 0.0 | 0.00 | 0.28 | 0.00 | 97 | 1013.5 |
| 20260904071510 | 65 | 294 | 0.0 | 0.0 | 0.00 | 0.28 | 0.00 | 97 | 1013.7 |
| 20260904070011 | 65 | 294 | 0.0 | 0.0 | 0.00 | 0.28 | 0.00 | 97 | 1013.9 |
| 20260904064517 | 65 | 294 | 0.0 | 0.0 | 0.00 | 0.28 | 0.00 | 97 | 1014.1 |
| 20260904063011 | 65 | 294 | 0.0 | 0.0 | 0.00 | 0.28 | 0.00 | 97 | 1014.1 |
| 20260904061512 | 65 | 294 | 0.0 | 0.0 | 0.00 | 0.28 | 0.00 | 97 | 1014.0 |
| 20260904060011 | 65 | 294 | 0.0 | 0.0 | 0.00 | 0.28 | 0.00 | 97 | 1013.9 |
| 20260904054513 | 66 | 294 | 0.0 | 0.0 | 0.00 | 0.30 | 0.00 | 97 | 1014.1 |
| 20260904053011 | 66 | 294 | 0.0 | 0.0 | 0.00 | 0.30 | 0.00 | 97 | 1014.1 |
| 20260904051515 | 66 | 294 | 0.0 | 2.0 | 0.00 | 0.30 | 0.00 | 97 | 1014.2 |
| 20260904050011 | 67 | 294 | 0.0 | 1.0 | 0.00 | 0.30 | 0.00 | 97 | 1014.4 |
| 20260904044511 | 66 | 45 | 0.0 | 0.0 | 0.00 | 0.30 | 0.00 | 97 | 1014.2 |
| 20260904043011 | 66 | 45 | 0.0 | 0.0 | 0.00 | 0.30 | 0.00 | 97 | 1014.2 |
| 20260904041511 | 66 | 45 | 0.0 | 0.0 | 0.00 | 0.30 | 0.00 | 97 | 1014.0 |
| 20260904040011 | 66 | 45 | 0.0 | 0.0 | 0.00 | 0.30 | 0.00 | 97 | 1013.9 |
| 20260904034511 | 67 | 45 | 0.0 | 0.0 | 0.00 | 0.30 | 0.30 | 97 | 1013.7 |
| 20260904033016 | 67 | 45 | 0.0 | 0.0 | 0.00 | 0.30 | 0.30 | 97 | 1013.6 |
| 20260904031511 | 68 | 45 | 0.0 | 0.0 | 0.00 | 0.30 | 0.30 | 97 | 1013.6 |
| 20260904030011 | 67 | 45 | 0.0 | 0.0 | 0.00 | 0.30 | 0.30 | 97 | 1013.6 |
| 20260904024511 | 67 | 45 | 0.0 | 0.0 | 0.00 | 0.30 | 0.30 | 97 | 1013.5 |
| 20260904023011 | 67 | 45 | 0.0 | 0.0 | 0.00 | 0.30 | 0.30 | 97 | 1013.4 |
| 20260904021512 | 67 | 45 | 0.0 | 0.0 | 0.00 | 0.30 | 0.30 | 97 | 1013.5 |
| 20260904020011 | 67 | 45 | 0.0 | 0.0 | 0.00 | 0.30 | 0.30 | 97 | 1013.3 |
| 20260904014512 | 66 | 45 | 0.0 | 0.0 | 0.00 | 0.33 | 0.30 | 97 | 1013.4 |
| 20260904013016 | 66 | 45 | 0.0 | 0.0 | 0.00 | 0.33 | 0.30 | 97 | 1013.3 |
| 20260904011514 | 66 | 45 | 0.0 | 0.0 | 0.00 | 0.33 | 0.30 | 97 | 1013.3 |
| 20260904010012 | 66 | 45 | 0.0 | 0.0 | 0.00 | 0.33 | 0.30 | 96 | 1013.0 |
| 20260904004512 | 67 | 45 | 0.0 | 0.0 | 0.00 | 0.46 | 0.30 | 96 | 1012.5 |
| 20260904003012 | 67 | 45 | 0.0 | 0.0 | 0.00 | 0.46 | 0.30 | 96 | 1012.2 |
| 20260904001512 | 67 | 45 | 0.0 | 0.0 | 0.00 | 0.46 | 0.30 | 96 | 1012.3 |
| 20260904000012 | 68 | 45 | 0.0 | 0.0 | 0.00 | 0.46 | 0.30 | 96 | 1012.2 |
| 20260903234512 | 68 | 45 | 0.0 | 1.0 | 0.00 | 0.47 | 0.30 | 96 | 1012.2 |
| 20260903233013 | 68 | 45 | 0.0 | 0.0 | 0.00 | 0.47 | 0.30 | 96 | 1012.3 |
| 20260903231513 | 68 | 45 | 0.0 | 0.0 | 0.00 | 0.47 | 0.30 | 96 | 1012.4 |
| 20260903230025 | 68 | 45 | 0.0 | 0.0 | 0.00 | 0.47 | 0.30 | 96 | 1012.1 |
| 20260903224512 | 68 | 45 | 0.0 | 2.0 | 0.00 | 0.48 | 0.30 | 96 | 1012.0 |
| 20260903223012 | 68 | 45 | 0.0 | 2.0 | 0.00 | 0.48 | 0.30 | 96 | 1010.8 |
| 20260903221515 | 68 | 45 | 1.0 | 3.0 | 0.02 | 0.48 | 0.30 | 96 | 1010.6 |
| 20260903220012 | 68 | 321 | 1.0 | 5.0 | 0.07 | 0.48 | 0.30 | 96 | 1011.4 |
| 20260903214528 | 70 | 319 | 2.0 | 6.0 | 0.12 | 0.60 | 0.30 | 96 | 1012.0 |
| 20260903213019 | 70 | 300 | 0.0 | 1.0 | 0.14 | 0.60 | 0.30 | 96 | 1011.8 |
| 20260903211512 | 70 | 300 | 0.0 | 5.0 | 0.20 | 0.57 | 0.28 | 96 | 1012.1 |
| 20260903210013 | 71 | 338 | 1.0 | 5.0 | 0.21 | 0.53 | 0.23 | 96 | 1013.3 |
| 20260903204513 | 71 | 313 | 1.0 | 6.0 | 0.17 | 0.48 | 0.18 | 95 | 1013.7 |